Tracking 19909 objects as of 22-Oct-2019
HD Live streaming from Space Station
objects crossing your sky now

IRIDIUM 33 DEB

Track IRIDIUM 33 DEB now!
10-day predictions


NORAD ID: 38020
Int'l Code: 1997-051YG
Perigee: 712.9 km
Apogee: 973.4 km
Inclination: 86.3 °
Period: 101.6 minutes
Semi major axis: 7214 km
RCS: 0.0174 m2 (small)
Launch date: September 14, 1997
Source: United States (US)
Launch site: TYURATAM MISSILE AND SPACE COMPLEX (TTMTR)

Note: This is SATELLITE DEBRIS
aabbcc
Your satellite tracking list
Your tracking list is empty




NASA's NSSDC Master Catalog

Two Line Element Set (TLE):
1 38020U 97051YG  19294.85663145  .00001875  00000-0  79064-3 0  9998
2 38020  86.3103 336.7657 0180531 233.2652 125.1841 14.16857556524410
Source of the keplerian elements: AFSPC